FW2316 Weather Reports


Display with metric or nautical units.
time (UTC)temp
F
wind
direction
speed
MPH
gust
MPH
rain 1hr
in
rain 24hr
in
rain mn
in
humidity
%
barometer
mb
20260831151055 54 324 1.0 5.0 0.00 0.00 0.00 87 1014.8
20260831150552 54 324 2.0 5.0 0.00 0.00 0.00 87 1014.8
20260831150059 54 319 2.0 4.0 0.00 0.00 0.00 88 1014.9
20260831145550 53 306 1.0 4.0 0.00 0.00 0.00 89 1014.9
20260831145049 53 297 1.0 4.0 0.00 0.00 0.00 91 1014.8
20260831144548 52 296 0.0 0.0 0.00 0.00 0.00 92 1014.9
20260831144046 51 296 0.0 0.0 0.00 0.00 0.00 92 1014.8
20260831143545 51 297 0.0 0.0 0.00 0.00 0.00 92 1014.8
20260831143046 51 296 0.0 0.0 0.00 0.00 0.00 93 1014.8
20260831142543 50 296 0.0 1.0 0.00 0.00 0.00 94 1014.8
20260831142042 50 296 0.0 1.0 0.00 0.00 0.00 94 1014.8
20260831141043 49 296 0.0 2.0 0.00 0.00 0.00 94 1014.9
20260831140543 48 297 0.0 0.0 0.00 0.00 0.00 94 1014.9
20260831140042 48 296 0.0 0.0 0.00 0.00 0.00 94 1014.9
20260831135540 48 297 0.0 0.0 0.00 0.00 0.00 94 1014.9
20260831135040 48 296 0.0 0.0 0.00 0.00 0.00 94 1014.9
20260831134544 48 296 0.0 2.0 0.00 0.00 0.00 94 1014.9
20260831134037 48 297 0.0 3.0 0.00 0.00 0.00 94 1014.9
20260831133536 48 297 1.0 3.0 0.00 0.00 0.00 93 1014.9
20260831133036 48 296 0.0 4.0 0.00 0.00 0.00 93 1014.9
20260831132538 48 296 0.0 4.0 0.00 0.00 0.00 93 1014.9
20260831132035 48 297 0.0 0.0 0.00 0.00 0.00 93 1015.0
20260831131034 48 297 0.0 0.0 0.00 0.00 0.00 93 1015.0
20260831130534 48 297 0.0 0.0 0.00 0.00 0.00 92 1015.0
20260831130033 49 297 0.0 0.0 0.00 0.00 0.00 92 1015.1
20260831125533 49 297 0.0 0.0 0.00 0.00 0.00 92 1015.1
20260831125033 49 297 0.0 0.0 0.00 0.00 0.00 92 1015.1
20260831124532 49 297 0.0 0.0 0.00 0.00 0.00 92 1015.1
20260831124031 49 297 0.0 0.0 0.00 0.00 0.00 92 1015.1
20260831123531 49 297 0.0 0.0 0.00 0.00 0.00 92 1015.2
20260831123030 49 297 0.0 0.0 0.00 0.00 0.00 92 1015.1
20260831122530 49 297 0.0 0.0 0.00 0.00 0.00 92 1015.1
20260831122029 49 297 0.0 0.0 0.00 0.00 0.00 92 1015.1
20260831121030 49 297 0.0 0.0 0.00 0.00 0.00 91 1015.2
20260831120530 50 297 0.0 0.0 0.00 0.00 0.00 92 1015.2
20260831120038 50 297 0.0 0.0 0.00 0.00 0.00 91 1015.3
20260831115629 50 297 0.0 0.0 0.00 0.00 0.00 91 1015.3
20260831115027 50 297 0.0 0.0 0.00 0.00 0.00 92 1015.3
20260831114527 50 297 0.0 0.0 0.00 0.00 0.00 92 1015.3
20260831114027 50 297 0.0 0.0 0.00 0.00 0.00 92 1015.4
20260831113530 50 297 0.0 0.0 0.00 0.00 0.00 92 1015.4
20260831113025 50 297 0.0 0.0 0.00 0.00 0.00 91 1015.5
20260831112525 50 297 0.0 0.0 0.00 0.00 0.00 91 1015.5
20260831112024 50 297 0.0 0.0 0.00 0.00 0.00 91 1015.5
20260831111025 50 297 0.0 0.0 0.00 0.00 0.00 91 1015.7
20260831110520 50 297 0.0 0.0 0.00 0.00 0.00 91 1015.7
20260831110020 50 297 0.0 0.0 0.00 0.00 0.00 91 1015.6
20260831105520 50 297 0.0 0.0 0.00 0.00 0.00 91 1015.7
20260831105019 51 297 0.0 0.0 0.00 0.00 0.00 91 1015.8
20260831104524 51 297 0.0 0.0 0.00 0.00 0.00 91 1015.8
20260831104018 51 297 0.0 0.0 0.00 0.00 0.00 91 1015.8
20260831103517 51 297 0.0 1.0 0.00 0.00 0.00 91 1015.8
20260831103016 51 297 0.0 0.0 0.00 0.00 0.00 91 1015.8
20260831102519 51 297 0.0 1.0 0.00 0.00 0.00 91 1015.9
20260831102020 51 297 0.0 1.0 0.00 0.00 0.00 91 1015.8
20260831101017 51 297 0.0 1.0 0.00 0.00 0.00 91 1015.9
20260831100515 51 297 0.0 1.0 0.00 0.00 0.00 91 1016.0
20260831100014 51 297 0.0 0.0 0.00 0.00 0.00 90 1016.1
20260831095514 51 297 0.0 0.0 0.00 0.00 0.00 90 1016.1
20260831095013 51 297 0.0 0.0 0.00 0.00 0.00 90 1016.2
20260831094612 51 297 0.0 0.0 0.00 0.00 0.00 90 1016.3
20260831094012 51 297 0.0 1.0 0.00 0.00 0.00 90 1016.4
20260831093511 51 297 0.0 1.0 0.00 0.00 0.00 90 1016.5
20260831093015 51 297 0.0 1.0 0.00 0.00 0.00 89 1016.7
20260831092509 52 297 0.0 0.0 0.00 0.00 0.00 89 1016.7
20260831092007 52 297 0.0 0.0 0.00 0.00 0.00 89 1016.6
20260831091007 52 297 0.0 1.0 0.00 0.00 0.00 88 1016.8
20260831090507 52 297 0.0 1.0 0.00 0.00 0.00 88 1016.8
20260831090007 52 297 0.0 0.0 0.00 0.00 0.00 88 1016.8
20260831085507 52 297 0.0 0.0 0.00 0.00 0.00 88 1016.9
20260831085007 52 297 0.0 0.0 0.00 0.00 0.00 88 1016.9
20260831084519 52 297 0.0 0.0 0.00 0.00 0.00 88 1016.9
20260831084006 53 297 0.0 0.0 0.00 0.00 0.00 88 1016.8
20260831083506 53 297 0.0 0.0 0.00 0.00 0.00 88 1016.8
20260831083006 53 297 0.0 0.0 0.00 0.00 0.00 88 1016.9
20260831082505 53 297 0.0 0.0 0.00 0.00 0.00 88 1016.9
20260831082005 53 297 0.0 0.0 0.00 0.00 0.00 88 1016.9
20260831081004 53 297 0.0 0.0 0.00 0.00 0.00 87 1017.1
20260831080504 53 297 0.0 0.0 0.00 0.00 0.00 87 1017.1
20260831080012 53 297 0.0 0.0 0.00 0.00 0.00 87 1017.2
20260831075504 54 297 0.0 0.0 0.00 0.00 0.00 86 1017.2
20260831075004 54 297 0.0 0.0 0.00 0.00 0.00 86 1017.1
20260831074511 54 297 0.0 0.0 0.00 0.00 0.00 86 1017.1
20260831074004 54 297 0.0 0.0 0.00 0.00 0.00 85 1017.1
20260831073503 54 297 0.0 0.0 0.00 0.00 0.00 85 1017.2
20260831073003 55 297 0.0 0.0 0.00 0.00 0.00 85 1017.2
20260831072505 55 297 0.0 0.0 0.00 0.00 0.00 85 1017.3
20260831072002 55 297 0.0 0.0 0.00 0.00 0.00 84 1017.3
20260831071003 55 297 0.0 0.0 0.00 0.00 0.00 83 1017.4
20260831070501 56 297 0.0 1.0 0.00 0.00 0.00 83 1017.4
20260831070001 56 297 0.0 1.0 0.00 0.00 0.00 84 1017.6
20260831065500 55 297 0.0 0.0 0.00 0.00 0.00 84 1017.6
20260831065101 56 297 0.0 0.0 0.00 0.00 0.00 83 1017.7
20260831064602 56 297 0.0 0.0 0.00 0.00 0.00 82 1017.7
20260831064059 56 297 0.0 0.0 0.00 0.00 0.00 82 1017.7
20260831063559 56 297 0.0 1.0 0.00 0.00 0.00 82 1017.8
20260831063111 57 297 0.0 3.0 0.00 0.00 0.00 81 1017.8
20260831062559 57 297 0.0 1.0 0.00 0.00 0.00 81 1017.9
20260831062058 57 297 0.0 2.0 0.00 0.00 0.00 82 1018.0
20260831061057 55 230 0.0 0.0 0.00 0.00 0.00 83 1018.1
20260831060557 55 230 0.0 0.0 0.00 0.00 0.00 82 1018.1
20260831060056 55 230 0.0 0.0 0.00 0.00 0.00 82 1018.1
20260831055558 55 230 0.0 0.0 0.00 0.00 0.00 82 1018.2
20260831055055 56 230 0.0 0.0 0.00 0.00 0.00 82 1018.3
20260831054555 56 230 0.0 0.0 0.00 0.00 0.00 81 1018.3
20260831054054 56 230 0.0 0.0 0.00 0.00 0.00 80 1018.4
20260831053557 56 230 0.0 0.0 0.00 0.00 0.00 79 1018.5
20260831053100 57 230 0.0 0.0 0.00 0.00 0.00 79 1018.5
20260831052554 57 230 0.0 0.0 0.00 0.00 0.00 78 1018.5
20260831052056 57 230 0.0 0.0 0.00 0.00 0.00 78 1018.5
20260831051054 58 297 0.0 1.0 0.00 0.00 0.00 79 1018.5
20260831050555 58 297 0.0 0.0 0.00 0.00 0.00 78 1018.5
20260831050053 58 297 0.0 0.0 0.00 0.00 0.00 78 1018.5
20260831045553 58 297 0.0 0.0 0.00 0.00 0.00 77 1018.6
20260831045053 59 297 0.0 0.0 0.00 0.00 0.00 76 1018.6
20260831044553 59 297 0.0 0.0 0.00 0.00 0.00 76 1018.6
20260831044053 59 297 0.0 0.0 0.00 0.00 0.00 75 1018.7
20260831043552 59 297 0.0 0.0 0.00 0.00 0.00 74 1018.6
20260831043053 60 297 0.0 0.0 0.00 0.00 0.00 73 1018.6
20260831042555 60 297 0.0 1.0 0.00 0.00 0.00 72 1018.6
20260831042052 61 297 0.0 2.0 0.00 0.00 0.00 70 1018.7
20260831041052 62 267 0.0 2.0 0.00 0.00 0.00 66 1018.7
20260831040551 62 295 0.0 1.0 0.00 0.00 0.00 66 1018.7
20260831040052 62 295 0.0 1.0 0.00 0.00 0.00 65 1018.6
20260831035550 62 291 0.0 1.0 0.00 0.00 0.00 65 1018.6
20260831035052 63 313 0.0 3.0 0.00 0.00 0.00 64 1018.6
20260831034601 63 332 1.0 3.0 0.00 0.00 0.00 64 1018.5
20260831034051 63 335 1.0 3.0 0.00 0.00 0.00 64 1018.6
20260831033554 63 313 1.0 3.0 0.00 0.00 0.00 63 1018.5
20260831033057 64 317 1.0 5.0 0.00 0.00 0.00 62 1018.5
20260831032551 64 310 2.0 5.0 0.00 0.00 0.00 62 1018.5
20260831032051 64 304 2.0 7.0 0.00 0.00 0.00 62 1018.5
20260831031053 64 297 2.0 7.0 0.00 0.00 0.00 66 1018.5
20260831030553 64 297 3.0 7.0 0.00 0.00 0.00 65 1018.5
20260831030054 65 297 4.0 7.0 0.00 0.00 0.00 65 1018.5
20260831025550 65 298 2.0 8.0 0.00 0.00 0.00 64 1018.4
20260831025050 65 298 3.0 9.0 0.00 0.00 0.00 64 1018.5
20260831024557 66 300 5.0 9.0 0.00 0.00 0.00 63 1018.5
20260831024049 66 307 3.0 7.0 0.00 0.00 0.00 63 1018.6
20260831023549 67 312 3.0 6.0 0.00 0.00 0.00 63 1018.6
20260831023048 67 306 2.0 6.0 0.00 0.00 0.00 62 1018.6
20260831022549 67 306 2.0 6.0 0.00 0.00 0.00 61 1018.7
20260831022047 68 307 4.0 8.0 0.00 0.00 0.00 60 1018.7
20260831021047 68 306 3.0 6.0 0.00 0.00 0.00 60 1018.8
20260831020546 68 307 2.0 6.0 0.00 0.00 0.00 60 1018.8
20260831020049 68 320 3.0 6.0 0.00 0.00 0.00 59 1018.8
20260831015545 68 322 2.0 8.0 0.00 0.00 0.00 59 1018.8
20260831015044 69 321 4.0 8.0 0.00 0.00 0.00 59 1018.9
20260831014547 69 322 2.0 8.0 0.00 0.00 0.00 59 1018.9
20260831014043 68 337 2.0 9.0 0.00 0.00 0.00 58 1018.9
20260831013542 69 317 5.0 9.0 0.00 0.00 0.00 57 1018.9
20260831013046 69 329 2.0 9.0 0.00 0.00 0.00 57 1019.0
20260831012545 70 295 5.0 9.0 0.00 0.00 0.00 55 1019.0
20260831012043 69 318 1.0 8.0 0.00 0.00 0.00 55 1019.0
20260831011544 69 317 4.0 8.0 0.00 0.00 0.00 55 1019.1
20260831011039 70 298 5.0 8.0 0.00 0.00 0.00 55 1019.0
20260831010539 70 307 2.0 8.0 0.00 0.00 0.00 56 1019.1
20260831010040 70 323 3.0 10.0 0.00 0.00 0.00 55 1019.2
20260831005540 70 311 3.0 10.0 0.00 0.00 0.00 55 1019.1
20260831005039 70 337 3.0 9.0 0.00 0.00 0.00 56 1019.2
20260831004037 70 340 2.0 10.0 0.00 0.00 0.00 55 1019.1
20260831003535 71 320 4.0 10.0 0.00 0.00 0.00 55 1019.1
20260831003035 70 360 0.0 6.0 0.00 0.00 0.00 55 1019.2
20260831002533 70 355 0.0 9.0 0.00 0.00 0.00 56 1019.2
20260831002036 70 338 5.0 10.0 0.00 0.00 0.00 54 1019.3
20260831001532 70 288 5.0 10.0 0.00 0.00 0.00 54 1019.4
20260831001032 71 355 3.0 6.0 0.00 0.00 0.00 53 1019.4
20260831000531 71 5 3.0 6.0 0.00 0.00 0.00 53 1019.4
20260831000033 70 327 2.0 6.0 0.00 0.00 0.00 54 1019.5
20260830235530 70 327 3.0 6.0 0.00 0.00 0.00 54 1019.6
20260830235030 71 336 2.0 9.0 0.00 0.00 0.00 52 1019.5
20260830234030 72 315 5.0 9.0 0.00 0.00 0.00 52 1019.6
20260830233530 70 309 1.0 8.0 0.00 0.00 0.00 53 1019.5
20260830233030 71 312 2.0 8.0 0.00 0.00 0.00 52 1019.6
20260830232530 70 355 1.0 5.0 0.00 0.00 0.00 53 1019.7
20260830232030 71 343 2.0 5.0 0.00 0.00 0.00 52 1019.7
20260830231529 71 329 2.0 9.0 0.00 0.00 0.00 53 1019.7
20260830231028 71 349 4.0 9.0 0.00 0.00 0.00 52 1019.8
20260830230527 71 306 2.0 10.0 0.00 0.00 0.00 53 1019.9
20260830230026 71 317 5.0 10.0 0.00 0.00 0.00 54 1019.8
20260830225526 70 5 5.0 10.0 0.00 0.00 0.00 54 1019.9
20260830225026 71 9 3.0 10.0 0.00 0.00 0.00 54 1019.9
20260830224025 69 252 2.0 8.0 0.00 0.00 0.00 55 1020.0
20260830223524 70 338 4.0 8.0 0.00 0.00 0.00 54 1020.1
20260830223031 70 337 1.0 9.0 0.00 0.00 0.00 53 1020.1
20260830222525 71 311 4.0 9.0 0.00 0.00 0.00 53 1020.1
20260830222023 71 281 3.0 8.0 0.00 0.00 0.00 54 1020.1
20260830221523 70 283 3.0 8.0 0.00 0.00 0.00 56 1020.1
20260830221022 70 281 2.0 9.0 0.00 0.00 0.00 55 1020.1
20260830220521 69 213 3.0 9.0 0.00 0.00 0.00 57 1020.2
20260830220024 70 279 2.0 7.0 0.00 0.00 0.00 57 1020.2
20260830215520 70 217 2.0 7.0 0.00 0.00 0.00 57 1020.3
20260830215022 69 59 1.0 7.0 0.00 0.00 0.00 56 1020.4
20260830214020 69 46 3.0 7.0 0.00 0.00 0.00 54 1020.6
20260830213517 68 207 0.0 6.0 0.00 0.00 0.00 58 1020.6
20260830213016 68 207 2.0 6.0 0.00 0.00 0.00 61 1020.6
20260830212518 68 216 2.0 4.0 0.00 0.00 0.00 59 1020.7
20260830212017 68 278 0.0 4.0 0.00 0.01 0.00 59 1020.8
20260830211515 67 284 1.0 5.0 0.00 0.01 0.00 60 1020.9
20260830211015 67 275 2.0 8.0 0.00 0.01 0.00 61 1021.0
20260830210515 67 278 3.0 8.0 0.00 0.01 0.00 63 1021.1
20260830210014 66 308 4.0 8.0 0.00 0.01 0.00 62 1021.0
20260830205514 67 255 4.0 9.0 0.00 0.01 0.00 61 1021.1
20260830205015 68 320 6.0 9.0 0.00 0.01 0.00 59 1021.1
20260830204012 69 173 2.0 5.0 0.00 0.01 0.00 60 1021.1
20260830203611 68 227 1.0 5.0 0.00 0.01 0.00 60 1021.1
20260830203012 65 242 2.0 8.0 0.00 0.01 0.00 63 1021.2
20260830202511 66 216 2.0 9.0 0.00 0.01 0.00 63 1021.2
20260830202013 66 244 3.0 9.0 0.00 0.01 0.00 63 1021.3
20260830201511 67 200 4.0 10.0 0.00 0.01 0.00 62 1021.2
20260830201010 68 246 6.0 10.0 0.00 0.01 0.00 62 1021.2
20260830200510 68 290 1.0 7.0 0.00 0.01 0.00 61 1021.4
20260830200008 66 273 1.0 6.0 0.00 0.01 0.00 61 1021.4
20260830195509 65 263 2.0 8.0 0.00 0.01 0.00 63 1021.5
20260830195009 66 249 3.0 8.0 0.00 0.01 0.00 62 1021.5
20260830194008 67 311 2.0 9.0 0.00 0.01 0.00 62 1021.5
20260830193508 64 314 2.0 8.0 0.00 0.01 0.00 65 1021.6
20260830193007 65 318 4.0 10.0 0.00 0.01 0.00 63 1021.6
20260830192507 67 315 4.0 10.0 0.00 0.01 0.00 61 1021.5
20260830192007 67 302 3.0 8.0 0.00 0.06 0.00 61 1021.4
20260830191506 67 167 2.0 5.0 0.00 0.06 0.00 63 1021.5
20260830191005 65 171 1.0 6.0 0.00 0.06 0.00 64 1021.5
20260830190504 65 174 3.0 9.0 0.00 0.06 0.00 64 1021.5
20260830190003 65 176 5.0 9.0 0.00 0.06 0.00 64 1021.5
20260830185502 65 165 1.0 8.0 0.00 0.06 0.00 64 1021.5
20260830185002 65 26 0.0 6.0 0.00 0.06 0.00 64 1021.6
20260830184001 64 24 4.0 6.0 0.00 0.06 0.00 65 1021.6
20260830183602 64 124 3.0 7.0 0.00 0.06 0.00 64 1021.8
20260830183101 63 261 3.0 6.0 0.00 0.06 0.00 66 1021.8
20260830182602 63 228 2.0 7.0 0.00 0.06 0.00 68 1021.9
20260830182058 63 250 2.0 8.0 0.00 0.06 0.00 66 1021.9
20260830181559 64 257 2.0 8.0 0.00 0.06 0.00 65 1021.9
20260830181059 63 278 3.0 7.0 0.00 0.06 0.00 65 1021.9
20260830180555 64 212 2.0 6.0 0.00 0.06 0.00 66 1021.9
20260830180055 63 167 2.0 6.0 0.00 0.06 0.00 67 1021.9
20260830175553 63 174 4.0 6.0 0.00 0.06 0.00 68 1021.9
20260830175053 63 207 1.0 6.0 0.00 0.06 0.00 69 1021.8
20260830174153 61 161 0.0 6.0 0.00 0.06 0.00 71 1021.9
20260830173552 61 168 1.0 7.0 0.00 0.06 0.00 70 1021.9
20260830173053 61 178 2.0 7.0 0.00 0.06 0.00 72 1021.8
20260830172552 60 200 3.0 7.0 0.00 0.06 0.00 72 1021.7
20260830172051 60 241 3.0 7.0 0.00 0.06 0.00 71 1021.8
20260830171557 60 329 2.0 4.0 0.00 0.06 0.00 72 1021.8
20260830171048 60 216 1.0 4.0 0.00 0.06 0.00 72 1021.8
20260830170547 60 284 2.0 9.0 0.00 0.06 0.00 73 1021.8
20260830170045 59 277 4.0 9.0 0.00 0.06 0.00 73 1021.8
20260830165544 59 227 0.0 4.0 0.00 0.06 0.00 74 1021.7
20260830165047 59 202 1.0 5.0 0.00 0.06 0.00 71 1021.6
20260830164643 59 202 1.0 5.0 0.00 0.06 0.00 71 1021.8
20260830164043 59 206 0.0 5.0 0.00 0.06 0.00 72 1021.8
20260830163543 58 215 1.0 5.0 0.00 0.06 0.00 72 1021.8
20260830163053 59 22 0.0 2.0 0.00 0.06 0.00 74 1021.8
20260830162540 58 38 0.0 2.0 0.00 0.06 0.00 73 1021.8
20260830162039 58 76 0.0 2.0 0.00 0.16 0.00 73 1021.8
20260830161543 58 55 0.0 2.0 0.00 0.16 0.00 74 1021.9
20260830161041 58 82 0.0 2.0 0.00 0.16 0.00 74 1021.9
20260830160539 58 202 0.0 1.0 0.00 0.16 0.00 76 1022.0
20260830160054 58 183 0.0 1.0 0.00 0.16 0.00 76 1022.0
20260830155536 58 183 0.0 1.0 0.00 0.16 0.00 76 1022.1
20260830155150 58 183 0.0 1.0 0.00 0.16 0.00 78 1022.0
20260830154034 56 176 0.0 0.0 0.00 0.16 0.00 82 1022.0
20260830153533 56 177 0.0 0.0 0.00 0.16 0.00 82 1022.1
20260830152533 56 177 0.0 0.0 0.00 0.16 0.00 84 1022.0
20260830152032 55 177 0.0 0.0 0.00 0.26 0.00 86 1021.9